Location: Dąbrowa Miętka
(51.3714°N, 18.6370°E)
Time: 17:02:58
(UTC+02:00)

ISS - Pass Details

Date: 29 May 2018
Orbit: 402 x 408 km, 51.6° (Epoch: 20 September)

Event Time Altitude Azimuth Distance (km) Brightness Sun altitude
Rises 00:12:30 0° 284° (WNW) 2,323 0.3 -16.8°
Reaches altitude 10° 00:14:41 10° 275° (W) 1,460 -0.9 -16.8°
Enters shadow 00:17:08 32° 232° (SW) 721 -2.9 -16.8°
